Change the Weather History Date:

Thursday, September 11, 2014

  Actual Average Record
Temperature  
Mean Temperature 73 °F -  
Max Temperature 80 °F 88 °F 107 °F (2000)
Min Temperature 66 °F 64 °F 50 °F (2001)
Cooling Degree Days 8    
Growing Degree Days 23 (Base 50)    
Moisture  
Dew Point 61 °F    
Average Humidity 69    
Maximum Humidity 83    
Minimum Humidity 52    
Precipitation  
Precipitation 0.00 in - - ()
Sea Level Pressure  
Sea Level Pressure 30.01 in    
Wind  
Wind Speed 15 mph (NNE)    
Max Wind Speed 20 mph    
Max Gust Speed 26 mph    
Visibility 10 miles    
Events      
Averages and records for this station are not official NWS values.
T = Trace of Precipitation, MM = Missing Value Source: NWS Daily Summary

Daily Weather History Graph

Daily Weather History Graph

Search for Another Location

Airport or City:

Trip Planner

Search our weather history database for the weather conditions in past years. The results will help you decide how hot, cold, wet, or windy it might be!

Date:

Astronomy

Sep. 11, 2014 Rise Set
Actual Time 7:13 AM CDT 7:46 PM CDT
Civil Twilight 6:48 AM CDT 8:11 PM CDT
Nautical Twilight 6:18 AM CDT 8:41 PM CDT
Astronomical Twilight 5:48 AM CDT 9:11 PM CDT
Moon 9:35 PM CDT (9/11) 10:03 AM CDT (9/11)
Length of Visible Light 13h 22m
Length of Day
12h 32m
Waning Gibbous, 90% of the Moon is Illuminated
Sep 11
Waning Gibbous
Sep 15
Last Quarter
Sep 24
New
Oct 1
First Quarter
Oct 8
Full

Hourly Weather History & Observations

Time (CDT) Temp. Heat Index Dew Point Humidity Pressure Visibility Wind Dir Wind Speed Gust Speed Precip Events Conditions
12:53 AM 71.1 °F - 60.1 °F 68% 29.91 in 10.0 mi NNE 18.4 mph 26.5 mph N/A   Clear
1:53 AM 69.1 °F - 60.1 °F 73% 29.92 in 10.0 mi NNE 19.6 mph 26.5 mph N/A   Clear
2:53 AM 69.1 °F - 60.1 °F 73% 29.93 in 10.0 mi NNE 15.0 mph - N/A   Overcast
3:53 AM 69.1 °F - 60.1 °F 73% 29.93 in 10.0 mi NNE 15.0 mph - N/A   Overcast
4:53 AM 68.0 °F - 60.1 °F 76% 29.95 in 10.0 mi North 17.3 mph - N/A   Overcast
5:53 AM 66.0 °F - 60.1 °F 81% 29.96 in 10.0 mi North 16.1 mph 21.9 mph N/A   Partly Cloudy
6:53 AM 66.0 °F - 60.1 °F 81% 29.98 in 10.0 mi North 12.7 mph - N/A   Clear
7:48 AM 66.2 °F - 60.8 °F 83% 30.03 in 10.0 mi NNE 17.3 mph - N/A   Mostly Cloudy
7:53 AM 66.9 °F - 60.1 °F 79% 30.00 in 10.0 mi NNE 13.8 mph 21.9 mph N/A   Mostly Cloudy
8:53 AM 69.1 °F - 60.1 °F 73% 30.00 in 10.0 mi NNE 18.4 mph 26.5 mph N/A   Overcast
9:32 AM 69.8 °F - 60.8 °F 73% 30.04 in 10.0 mi NE 18.4 mph 24.2 mph N/A   Overcast
9:53 AM 69.1 °F - 60.1 °F 73% 30.02 in 10.0 mi NNE 18.4 mph - N/A   Overcast
10:53 AM 70.0 °F - 60.1 °F 71% 30.06 in 10.0 mi NNE 17.3 mph 24.2 mph N/A   Overcast
11:53 AM 71.1 °F - 60.1 °F 68% 30.08 in 10.0 mi NNE 16.1 mph - N/A   Overcast
12:53 PM 72.0 °F - 60.1 °F 66% 30.08 in 10.0 mi North 16.1 mph - N/A   Overcast
1:53 PM 73.9 °F - 60.1 °F 62% 30.06 in 10.0 mi North 11.5 mph - N/A   Overcast
2:53 PM 77.0 °F - 60.1 °F 56% 30.03 in 10.0 mi North 13.8 mph - N/A   Mostly Cloudy
3:32 PM 78.8 °F - 60.8 °F 54% 30.05 in 10.0 mi North 11.5 mph 19.6 mph N/A   Mostly Cloudy
3:53 PM 80.1 °F 81.1 °F 61.0 °F 52% 30.01 in 10.0 mi NNE 12.7 mph 17.3 mph N/A   Scattered Clouds
4:53 PM 80.1 °F 81.1 °F 61.0 °F 52% 30.00 in 10.0 mi NE 16.1 mph 19.6 mph N/A   Overcast
5:53 PM 77.0 °F - 61.0 °F 58% 29.98 in 10.0 mi NE 15.0 mph - N/A   Overcast
6:53 PM 75.0 °F - 61.0 °F 62% 30.00 in 10.0 mi NE 12.7 mph - N/A   Overcast
7:53 PM 73.0 °F - 61.0 °F 66% 30.01 in 10.0 mi NE 13.8 mph - N/A   Scattered Clouds
8:02 PM 73.4 °F - 60.8 °F 65% 30.04 in 10.0 mi NE 11.5 mph - N/A   Mostly Cloudy
8:40 PM 71.6 °F - 60.8 °F 69% 30.05 in 10.0 mi NE 10.4 mph - N/A   Partly Cloudy
8:53 PM 72.0 °F - 61.0 °F 68% 30.03 in 10.0 mi NE 8.1 mph - N/A   Clear
9:42 PM 71.6 °F - 60.8 °F 69% 30.07 in 10.0 mi ENE 9.2 mph - N/A   Mostly Cloudy
9:53 PM 71.1 °F - 61.0 °F 70% 30.05 in 10.0 mi ENE 9.2 mph - N/A   Mostly Cloudy
10:53 PM 70.0 °F - 61.0 °F 73% 30.07 in 10.0 mi ENE 10.4 mph - N/A   Overcast
11:53 PM 70.0 °F - 61.0 °F 73% 30.07 in 10.0 mi NE 9.2 mph - N/A   Overcast